Location: Sternwarte auf dem Internationalen Platz Vogelsang IP
(50.5721°N, 6.4398°E)
Time: 18:45:25
(UTC+01:00)

A-11 Canister half - Pass Details

Date: 13 December 2025
Orbit: 1511 x 1688 km, 47.2° (Epoch: 19 January)

Event Time Altitude Azimuth Distance (km) Brightness Sun altitude
Rises 21:27:41 0° 286° (WNW) 4,763 12.3 -45.7°
Reaches altitude 10° 21:30:55 10° 280° (W) 3,801 11.6 -46.1°
Enters shadow 21:37:16 37° 246° (WSW) 2,346 10.0 -47.1°
Maximum altitude 21:39:47 42° 214° (SW) 2,179 - -47.4°
Drops below altitude 10° 21:48:56 10° 148° (SSE) 3,912 - -48.8°
Sets 21:52:19 0° 142° (SE) 4,913 - -49.2°
